This is the latest recevied weather packets stored in our database for station/object KE0PRS. If no packets are shown the sender has not sent any weather packets the latest 10 day(s).
| Time | Temp. | Humidity | Pressure | Rain* | Wind** | Luminosity | Snow |
|---|---|---|---|---|---|---|---|
| 1788051811 | 33.89° C | 37% | 1011 hPa | 0 mm | - | 5 W/m² | - |
| 1788051506 | 33.89° C | 36% | 1011 hPa | 0 mm | - | 7 W/m² | - |
| 1788051204 | 34.44° C | 36% | 1010.9 hPa | 0 mm | - | 9 W/m² | - |
| 1788050904 | 34.44° C | 36% | 1011 hPa | 0 mm | - | 12 W/m² | - |
| 1788050600 | 35° C | 35% | 1010.8 hPa | 0 mm | - | 17 W/m² | - |
| 1788050299 | 35° C | 35% | 1010.7 hPa | 0 mm | - | 23 W/m² | - |
| 1788049999 | 35.56° C | 35% | 1011 hPa | 0 mm | - | 29 W/m² | - |
| 1788049696 | 35.56° C | 35% | 1010.9 hPa | 0 mm | - | 35 W/m² | - |
| 1788049392 | 36.11° C | 34% | 1011.1 hPa | 0 mm | - | 39 W/m² | - |
| 1788049087 | 36.11° C | 33% | 1010.8 hPa | 0 mm | - | 57 W/m² | - |
| 1788048783 | 36.11° C | 32% | 1010.9 hPa | 0 mm | - | 63 W/m² | - |
| 1788048481 | 36.67° C | 32% | 1011.1 hPa | 0 mm | - | 70 W/m² | - |
| 1788048180 | 36.67° C | 32% | 1010.9 hPa | 0 mm | - | 76 W/m² | - |
| 1788047877 | 36.67° C | 33% | 1010.8 hPa | 0 mm | - | 83 W/m² | - |
| 1788047572 | 36.67° C | 33% | 1010.8 hPa | 0 mm | - | 87 W/m² | - |
| 1788047272 | 36.67° C | 33% | 1010.8 hPa | 0 mm | - | 95 W/m² | - |
| 1788046967 | 36.67° C | 32% | 1010.9 hPa | 0 mm | - | 105 W/m² | - |
| 1788046666 | 36.67° C | 32% | 1011 hPa | 0 mm | - | 117 W/m² | - |
| 1788046361 | 37.22° C | 32% | 1010.8 hPa | 0 mm | - | 130 W/m² | - |
| 1788046058 | 37.22° C | 32% | 1010.7 hPa | 0 mm | - | 145 W/m² | - |
| 1788045754 | 37.22° C | 32% | 1010.7 hPa | 0 mm | - | 160 W/m² | - |
| 1788045449 | 37.78° C | 32% | 1010.7 hPa | 0 mm | - | 184 W/m² | - |
| 1788045145 | 37.78° C | 31% | 1010.8 hPa | 0 mm | - | 205 W/m² | - |
| 1788044844 | 37.78° C | 31% | 1010.9 hPa | 0 mm | - | 221 W/m² | - |
| 1788044539 | 37.78° C | 31% | 1010.9 hPa | 0 mm | - | 239 W/m² | - |
* Rain latest hour (hover to see other rain measurements)
** Current wind speed in m/s (hover to see current wind gust speed)